Location: Bastogne Gables
(35.1554°N, 78.9900°W)
Time: 03:42:12
(UTC+00:00)

Cosmos 2278 - Pass Details

Date: 29 October 2020
Orbit: 842 x 851 km, 71.1° (Epoch: 26 November)

Event Time Altitude Azimuth Distance (km) Brightness Sun altitude
Rises 23:04:51 0° 174° (S) 3,396 6.9 -9.0°
Reaches altitude 10° 23:07:31 10° 164° (SSE) 2,463 6.1 -9.5°
Maximum altitude 23:12:27 32° 103° (ESE) 1,425 4.4 -10.5°
Drops below altitude 10° 23:17:24 10° 42° (NE) 2,471 5.7 -11.5°
Enters shadow 23:18:41 - 37° (NE) 2,912 6.1 -11.8°
